This demonstration page uses our WeatherBlox Daily Observations layout. Learn more.

36.17497, -115.13722

Hourly Observations for July 30, 2015

Temp ( °F °C ) Dew Point ( °F °C ) Humidity (%) Winds ( mph kmh ) Pressure ( in mb ) Visibility ( mi km ) Precip ( " mm )
12:53 am 00:53 Clear 91 33 52 11 26 26 W 8 13 29.8 1009 10 16.09344 0 0
1:53 am 01:53 Clear 90 32 52 11 27 27 Calm 29.83 1010 10 16.09344 0 0
2:53 am 02:53 Clear 88 31 52 11 29 29 NW 3 6 29.85 1011 10 16.09344 0 0
3:53 am 03:53 Clear 86 30 50 10 29 29 N 5 7 29.85 1011 10 16.09344 0 0
4:53 am 04:53 Clear 84 29 48 9 29 29 NW 8 13 29.85 1011 10 16.09344 0 0
5:53 am 05:53 Sunny 84 29 48 9 29 29 WNW 5 7 29.88 1012 10 16.09344 0 0
6:53 am 06:53 Sunny 86 30 48 9 27 27 NNW 6 9 29.88 1012 10 16.09344 0 0
7:53 am 07:53 Sunny 88 31 48 9 25 25 NNE 8 13 29.91 1013 10 16.09344 0 0
8:53 am 08:53 Sunny 90 32 55 13 31 31 E 7 11 29.91 1013 10 16.09344 0 0
9:53 am 09:53 Sunny 93 34 52 11 24 24 N 3 6 29.88 1012 10 16.09344 0 0
10:53 am 10:53 Sunny 97 36 48 9 19 19 E 6 9 29.88 1012 10 16.09344 0 0
11:53 am 11:53 Sunny 99 37 50 10 19 19 NNE 7 11 29.88 1012 10 16.09344 0 0
12:53 pm 12:53 Sunny 99 37 48 9 18 18 NNW 6 9 29.85 1011 10 16.09344 0 0
1:53 pm 13:53 Sunny 100 38 48 9 17 17 NNW 5 7 29.8 1009 10 16.09344 0 0
2:53 pm 14:53 Sunny 102 39 48 9 16 16 E 8 13 29.77 1008 10 16.09344 0 0
3:53 pm 15:53 Sunny 102 39 46 8 15 15 N 3 6 29.74 1007 10 16.09344 0 0
4:53 pm 16:53 Sunny 102 39 45 7 14 14 S 9 15 29.74 1007 10 16.09344 0 0
5:53 pm 17:53 Sunny 104 40 45 7 13 13 S 5 7 29.74 1007 10 16.09344 0 0
6:53 pm 18:53 Sunny 99 37 54 12 22 22 S 26 43 29.74 1007 10 16.09344 0 0
7:53 pm 19:53 Clear 93 34 55 13 28 28 SSE 29 46 29.83 1010 10 16.09344 0 0
8:53 pm 20:53 Clear 91 33 55 13 30 30 SSE 13 20 29.91 1013 10 16.09344 0 0
9:53 pm 21:53 Clear 91 33 55 13 30 30 SW 12 19 29.85 1011 10 16.09344 0 0
10:53 pm 22:53 Clear 91 33 54 12 28 28 W 13 20 29.85 1011 10 16.09344 0 0
11:53 pm 23:53 Clear 91 33 54 12 28 28 W 8 13 29.83 1010 10 16.09344 0 0

Powered by AerisWeather